Time,TemperatureF,DewpointF,PressureIn,WindDirection,WindDirectionDegrees,WindSpeedMPH,WindSpeedGustMPH,Humidity,HourlyPrecipIn,Conditions,Clouds,dailyrainin,SolarRadiationWatts/m^2,SoftwareType,DateUTC
2013-01-23 00:22:00,63.0,3.0,30.25,South,184,8.0,15.0,9,0.00,,,-99.99,0.000000,,2013-01-23 08:22:00,
2013-01-23 01:22:00,61.0,4.0,30.25,WSW,247,4.0,14.0,10,0.00,,,0.00,0.000000,,2013-01-23 09:22:00,
2013-01-23 02:22:00,63.0,8.0,30.25,WSW,251,7.0,12.0,11,0.00,,,0.00,0.000000,,2013-01-23 10:22:00,
2013-01-23 02:32:00,63.0,8.0,30.25,WSW,251,7.0,12.0,11,0.00,,,0.00,0.000000,,2013-01-23 10:32:00,
2013-01-23 03:22:00,63.0,8.0,30.24,WSW,243,8.0,11.0,11,0.00,,,0.00,0.000000,,2013-01-23 11:22:00,
2013-01-23 04:22:00,64.0,4.0,30.23,SW,232,8.0,13.0,9,0.00,,,-99.99,0.000000,,2013-01-23 12:22:00,
2013-01-23 05:23:00,64.0,4.0,30.22,West,275,5.0,12.0,9,0.00,,,0.00,0.000000,,2013-01-23 13:23:00,
2013-01-23 06:23:00,66.0,8.0,30.22,WSW,242,3.0,8.0,10,-99.99,,,0.00,0.000000,,2013-01-23 14:23:00,
2013-01-23 07:22:00,67.0,9.0,30.23,SW,234,8.0,13.0,10,-99.99,,,0.00,0.000000,,2013-01-23 15:22:00,
2013-01-23 08:22:00,66.0,10.0,30.24,WSW,240,7.0,12.0,11,-99.99,,,0.00,0.000000,,2013-01-23 16:22:00,
2013-01-23 09:22:00,71.0,16.0,30.25,WSW,251,6.0,11.0,12,0.00,,,0.00,118.000000,,2013-01-23 17:22:00,
2013-01-23 10:23:00,72.0,22.0,30.27,WNW,290,6.0,13.0,15,0.00,,,-99.99,152.000000,,2013-01-23 18:23:00,
2013-01-23 10:33:00,72.0,22.0,30.27,WNW,290,6.0,13.0,15,0.00,,,-99.99,152.000000,,2013-01-23 18:33:00,
2013-01-23 10:43:00,72.0,22.0,30.27,WNW,290,6.0,13.0,15,0.00,,,-99.99,152.000000,,2013-01-23 18:43:00,
2013-01-23 10:52:00,72.0,22.0,30.27,WNW,290,6.0,13.0,15,0.00,,,-99.99,152.000000,,2013-01-23 18:52:00,
2013-01-23 11:22:00,71.0,24.0,30.27,WNW,282,10.0,17.0,17,0.00,,,0.00,118.000000,,2013-01-23 19:22:00,
2013-01-23 11:33:00,71.0,24.0,30.27,WNW,282,10.0,17.0,17,0.00,,,0.00,118.000000,,2013-01-23 19:33:00,
2013-01-23 11:43:00,71.0,24.0,30.27,WNW,282,10.0,17.0,17,0.00,,,0.00,118.000000,,2013-01-23 19:43:00,
2013-01-23 11:52:00,71.0,24.0,30.27,WNW,282,10.0,17.0,17,0.00,,,0.00,118.000000,,2013-01-23 19:52:00,
2013-01-23 12:23:00,74.0,26.0,30.25,WNW,289,16.0,24.0,17,0.00,,,0.00,179.000000,,2013-01-23 20:23:00,
2013-01-23 12:33:00,74.0,26.0,30.25,WNW,289,16.0,24.0,17,0.00,,,0.00,179.000000,,2013-01-23 20:33:00,
2013-01-23 12:42:00,74.0,26.0,30.25,WNW,289,16.0,24.0,17,0.00,,,0.00,179.000000,,2013-01-23 20:42:00,
2013-01-23 12:53:00,74.0,26.0,30.25,WNW,289,16.0,24.0,17,0.00,,,0.00,179.000000,,2013-01-23 20:53:00,
2013-01-23 13:22:00,72.0,26.0,30.23,WNW,289,15.0,26.0,18,0.00,,,-99.99,296.000000,,2013-01-23 21:22:00,
2013-01-23 13:33:00,72.0,26.0,30.23,WNW,289,15.0,26.0,18,0.00,,,-99.99,296.000000,,2013-01-23 21:33:00,
2013-01-23 13:42:00,72.0,26.0,30.23,WNW,289,15.0,26.0,18,0.00,,,-99.99,296.000000,,2013-01-23 21:42:00,
2013-01-23 13:52:00,72.0,26.0,30.23,WNW,289,15.0,26.0,18,0.00,,,-99.99,296.000000,,2013-01-23 21:52:00,
2013-01-23 14:22:00,69.0,25.0,30.22,WNW,290,12.0,21.0,19,0.00,,,0.00,82.000000,,2013-01-23 22:22:00,
2013-01-23 14:33:00,69.0,25.0,30.22,WNW,290,12.0,21.0,19,0.00,,,0.00,82.000000,,2013-01-23 22:33:00,
2013-01-23 14:42:00,69.0,25.0,30.22,WNW,290,12.0,21.0,19,0.00,,,0.00,82.000000,,2013-01-23 22:42:00,
2013-01-23 14:52:00,69.0,25.0,30.22,WNW,290,12.0,21.0,19,0.00,,,0.00,82.000000,,2013-01-23 22:52:00,
2013-01-23 15:22:00,69.0,26.0,30.23,WNW,291,10.0,16.0,20,0.00,,,0.00,0.000000,,2013-01-23 23:22:00,
2013-01-23 15:33:00,69.0,26.0,30.23,WNW,291,10.0,16.0,20,0.00,,,0.00,0.000000,,2013-01-23 23:33:00,
2013-01-23 15:42:00,69.0,26.0,30.23,WNW,291,10.0,16.0,20,0.00,,,0.00,0.000000,,2013-01-23 23:42:00,
2013-01-23 15:52:00,69.0,26.0,30.23,WNW,291,10.0,16.0,20,0.00,,,0.00,0.000000,,2013-01-23 23:52:00,
2013-01-23 16:22:00,66.0,26.0,30.23,WNW,297,10.0,14.0,22,0.00,,,0.00,0.000000,,2013-01-24 00:22:00,
2013-01-23 16:32:00,66.0,26.0,30.23,WNW,297,10.0,14.0,22,0.00,,,0.00,0.000000,,2013-01-24 00:32:00,
2013-01-23 16:42:00,66.0,26.0,30.23,WNW,297,10.0,14.0,22,0.00,,,0.00,0.000000,,2013-01-24 00:42:00,
2013-01-23 16:52:00,66.0,26.0,30.23,WNW,297,10.0,14.0,22,0.00,,,0.00,0.000000,,2013-01-24 00:52:00,
2013-01-23 17:22:00,64.0,25.0,30.22,WNW,297,12.0,25.0,23,0.00,,,0.00,0.000000,,2013-01-24 01:22:00,
2013-01-23 17:33:00,64.0,25.0,30.22,WNW,297,12.0,25.0,23,0.00,,,0.00,0.000000,,2013-01-24 01:33:00,
2013-01-23 17:42:00,64.0,25.0,30.22,WNW,297,12.0,25.0,23,0.00,,,0.00,0.000000,,2013-01-24 01:42:00,
2013-01-23 17:52:00,64.0,25.0,30.22,WNW,297,12.0,25.0,23,0.00,,,0.00,0.000000,,2013-01-24 01:52:00,
2013-01-23 18:22:00,59.0,24.0,30.24,WNW,293,11.0,26.0,26,0.00,,,0.00,0.000000,,2013-01-24 02:22:00,
2013-01-23 18:33:00,59.0,24.0,30.24,WNW,293,11.0,26.0,26,0.00,,,0.00,0.000000,,2013-01-24 02:33:00,
2013-01-23 18:42:00,59.0,24.0,30.24,WNW,293,11.0,26.0,26,0.00,,,0.00,0.000000,,2013-01-24 02:42:00,
2013-01-23 18:52:00,59.0,24.0,30.24,WNW,293,11.0,26.0,26,0.00,,,0.00,0.000000,,2013-01-24 02:52:00,
2013-01-23 19:22:00,59.0,28.0,30.26,WNW,283,13.0,24.0,30,0.00,,,0.00,0.000000,,2013-01-24 03:22:00,
2013-01-23 19:32:00,59.0,28.0,30.26,WNW,283,13.0,24.0,30,0.00,,,0.00,0.000000,,2013-01-24 03:32:00,
2013-01-23 19:42:00,59.0,28.0,30.26,WNW,283,13.0,24.0,30,0.00,,,0.00,0.000000,,2013-01-24 03:42:00,
2013-01-23 19:52:00,59.0,28.0,30.26,WNW,283,13.0,24.0,30,0.00,,,0.00,0.000000,,2013-01-24 03:52:00,
2013-01-23 20:22:00,57.0,33.0,30.25,WNW,283,8.0,17.0,40,0.00,,,0.00,0.000000,,2013-01-24 04:22:00,
2013-01-23 20:32:00,57.0,33.0,30.25,WNW,283,8.0,17.0,40,0.00,,,0.00,0.000000,,2013-01-24 04:32:00,
2013-01-23 20:42:00,57.0,33.0,30.25,WNW,283,8.0,17.0,40,0.00,,,0.00,0.000000,,2013-01-24 04:42:00,
2013-01-23 20:52:00,57.0,33.0,30.25,WNW,283,8.0,17.0,40,0.00,,,0.00,0.000000,,2013-01-24 04:52:00,
2013-01-23 21:22:00,57.0,34.0,30.26,NNW,330,3.0,12.0,42,0.00,,,0.00,0.000000,,2013-01-24 05:22:00,
2013-01-23 21:32:00,57.0,34.0,30.26,NNW,330,3.0,12.0,42,0.00,,,0.00,0.000000,,2013-01-24 05:32:00,
2013-01-23 21:42:00,57.0,34.0,30.26,NNW,330,3.0,12.0,42,0.00,,,0.00,0.000000,,2013-01-24 05:42:00,
2013-01-23 21:52:00,57.0,34.0,30.26,NNW,330,3.0,12.0,42,0.00,,,0.00,0.000000,,2013-01-24 05:52:00,
2013-01-23 22:22:00,57.0,36.0,30.28,WSW,237,8.0,12.0,45,0.00,,,0.00,0.000000,,2013-01-24 06:22:00,
2013-01-23 22:32:00,57.0,36.0,30.28,WSW,237,8.0,12.0,45,0.00,,,0.00,0.000000,,2013-01-24 06:32:00,
2013-01-23 22:42:00,57.0,36.0,30.28,WSW,237,8.0,12.0,45,0.00,,,0.00,0.000000,,2013-01-24 06:42:00,
2013-01-23 22:52:00,57.0,36.0,30.28,WSW,237,8.0,12.0,45,0.00,,,0.00,0.000000,,2013-01-24 06:52:00,
2013-01-23 23:22:00,52.0,43.0,30.30,West,277,8.0,33.0,72,0.00,,,0.00,0.000000,,2013-01-24 07:22:00,
2013-01-23 23:33:00,52.0,43.0,30.30,West,277,8.0,33.0,72,0.00,,,0.00,0.000000,,2013-01-24 07:33:00,
2013-01-23 23:42:00,52.0,43.0,30.30,West,277,8.0,33.0,72,0.00,,,0.00,0.000000,,2013-01-24 07:42:00,
2013-01-23 23:52:00,52.0,43.0,30.30,West,277,8.0,33.0,72,0.00,,,0.00,0.000000,,2013-01-24 07:52:00,